Forside
METAR-TAF:

METAR-TAF

Lufthavne :

Shawano, Wisconsin, USA

Breddekreds: 44-47-14N, længdekreds: 088-33-36W, højde: 248 m

Aktuelle vejr

Denne rapport blev lavet for 12 minutter siden, kl. 15:35 UTC
Vind 9 kt fra vestsydvest
Temperatur 3°C
Fugtighed 75%
Tryk 1009 hPa
Sigt: 16.1 km
skyfri

METAR: KEZS 231535Z AUTO 24009KT 10SM CLR 03/M01 A2979 RMK AO2 T00271013

Tid: 09:47 (15:47 UTC)


TAF: fraværende

Vejrobservationer og prognoser fra mere end 4000 lufthavne (METAR og TAF).

De gule og røde prikker repræsenterer de meteorologiske stationer.

Flyt musen over at se navnet på stationen.

Så klik over at se vejr observationer og prognoser.

At skifte det kort: Klik på de grønne knapper med et sort kors for at zoome ind; på den grønne knap med en bindestreg for at zoome ud; eller på de grønne pile for tilstødende kort.


METAR-TAF: